Regional Weather Roundup
Issued by NWS

Home | Current Version | Previous Version | Text Only | Print | Product List | Glossary Off
Versions: 1 2 3 4 5 6 7 8 9 10 11 12 13 14 15 16 17 18 19 20 21 22 23 24 25 26 27 28 29 30 31 32 33 34 35 36 37 38 39 40 41 42 43 44 45 46 47 48 49 50

000
ASUS43 KIND 240709
RWRIN

WEATHER ROUNDUP FOR INDIANA
NATIONAL WEATHER SERVICE INDIANAPOLIS IN
300 AM EDT FRI OCT 24 2014

NOTE: "FAIR" INDICATES FEW OR NO CLOUDS BELOW 12,000 FEET WITH NO
SIGNIFICANT WEATHER AND/OR OBSTRUCTIONS TO VISIBILITY.

* - STATION DOES NOT REPORT WEATHER SUCH AS PRECIPITATION OR FOG.

+ - STATION NOT QUALITY CONTROLLED BY THE NATIONAL WEATHER SERVICE.
    USE DATA WITH CAUTION...ESPECIALLY DEWPOINT AND RELATIVE
    HUMIDITY OBSERVATIONS.

INZ001>003-010>013-019-020-240800-
NORTHWEST INDIANA

CITY           SKY/WX    TMP DP  RH WIND       PRES   REMARKS
GARY /AIRPORT/ CLOUDY    55  43  64 S6        30.06F
KNOX *+        CLOUDY    49  41  74 S3        30.08S
LA PORTE +     CLOUDY    51  44  75 CALM      30.08F
MICHIGAN CITY+ CLOUDY    52  39  62 S3        30.07F
MONTICELLO +   CLOUDY    48  44  85 CALM      30.09R
RENSSELAER +   CLOUDY    52  45  76 CALM      30.08S
VALPARAISO     CLOUDY    51  42  71 S5        30.07F

$$

LMZ046-743>745-240800-
SOUTHERN LAKE MICHIGAN

STATION/POSITION TIME  TEMP WIND        PRES
                       AIR  DIR/SP/G
                 (UTC) (F)  (DEG/KT/KT) (MB)
MICHIGAN CITY    0700   53  160/  7/  9   N/A

$$

INZ004-005-014>016-021>024-240800-
NORTH CENTRAL INDIANA

CITY           SKY/WX    TMP DP  RH WIND       PRES   REMARKS
GOSHEN         CLOUDY    45  41  86 CALM      30.09S FOG
LOGANSPORT +   CLOUDY    41  37  87 CALM      30.10F
ROCHESTER +    MOCLDY    46  43  87 CALM      30.09F
SOUTH BEND     CLOUDY    51  42  71 SW6       30.08F
WARSAW +       CLEAR     37  36  93 CALM      30.09S FOG

$$

INZ006>009-017-018-025>027-240800-
NORTHEAST INDIANA

CITY           SKY/WX    TMP DP  RH WIND       PRES   REMARKS
ANGOLA *+      PTCLDY    37  37 100 CALM      30.09S
AUBURN +       PTCLDY    36  34  93 CALM      30.10S FOG
FORT WAYNE     MOCLDY    38  35  89 CALM      30.11S
HUNTINGTON +   MOCLDY    40  39  97 CALM      30.10S

$$

INZ028-029-035-036-043>045-051>053-240800-
WEST CENTRAL INDIANA

CITY           SKY/WX    TMP DP  RH WIND       PRES   REMARKS
GREENCASTLE +  CLEAR     39  37  93 CALM      30.11F
LAFAYETTE      NOT AVBL
TERRE HAUTE    CLEAR     42  40  92 CALM      30.11S

$$

INZ030>032-037>040-046>048-054>057-064-065-240800-
CENTRAL INDIANA

CITY           SKY/WX    TMP DP  RH WIND       PRES   REMARKS
CP ATTERBURY + MOCLDY    41  39  93 CALM      30.12S
FRANKFORT +    CLOUDY   N/A N/A N/A CALM      30.11F
GREENWOOD *+   PTCLDY    41  37  87 CALM      30.12
INDIANAPOLIS   MOCLDY    45  40  82 CALM      30.11S
-EAGLE CREEK   PTCLDY    43  41  93 CALM      30.10F
KOKOMO *+      CLEAR     39  36  87 CALM      30.10F
MARION +       PTCLDY    39  36  89 CALM      30.11S
MT COMFORT *+  PTCLDY    39 N/A N/A CALM      30.11F
SHELBYVILLE    MOCLDY    42  38  85 CALM      30.11S
ZIONSVILLE +   PTCLDY    40  37  88 CALM      30.11F

$$

INZ033-034-041-042-049-050-058-059-240800-
EAST CENTRAL INDIANA

CITY           SKY/WX    TMP DP  RH WIND       PRES   REMARKS
MUNCIE         MOCLDY    41  38  89 SW3       30.10F

$$

INZ060-061-067>069-081>083-085>088-240800-
SOUTHWEST INDIANA

CITY           SKY/WX    TMP DP  RH WIND       PRES   REMARKS
EVANSVILLE     CLEAR     43  41  93 CALM      30.13S
HUNTINGBURG *+ PTCLDY    43  39  87 CALM      30.12S
WASHINGTON +     N/A     40  40 100 CALM      30.12S FOG

$$

INZ062-063-066-070>080-084-089>092-240800-
SOUTH CENTRAL AND SOUTHEAST INDIANA

CITY           SKY/WX    TMP DP  RH WIND       PRES   REMARKS
BLOOMINGTON    CLEAR     39  39 100 CALM      30.11S

$$




USA.gov is the U.S. government's official web portal to all federal, state and local government web resources and services.